アトラス彗星

C/2019 T3 ( ATLAS )

English version
Home page
Updated on August 15, 2020

---------------------------------------------------------------------

・ プロフィール

発見日 2019年10月6日
発見光度 18.9等
発見者 Asteroid Terrestrial-Impact Last Alert System (ATLAS) search program

・ 写真集

・ 軌道要素

Epoch 2021 Mar. 7.0 TT = JDT 2459280.5
T 2021 Mar. 2.70210 TT                                  Rudenko
q   5.9464880            (2000.0)            P               Q
z  +0.0002934      Peri.  112.27647     +0.60544938     +0.57396691
 +/-0.0000012      Node   139.52070     -0.19750689     -0.56273405
e   0.9982552      Incl.  121.86225     +0.77098773     -0.59488854
From 243 observations 2019 Jan. 17-2020 Aug. 3, mean residual 0".4.

・ 光度変化

        m1 = -2.8 + 5 logΔ + 20.0 log r

---------------------------------------------------------------------

軌道要素はM.P.E.C. 2020-P19に掲載されたものです。
光度グラフはComet for Windowsで作成したものです。

---------------------------------------------------------------------

Copyright(C) Seiichi Yoshida (comet@aerith.net). All rights reserved.